TAM3923 SBRJ-SBSP

Flight info

Callsign TAM3923
Flight time 0h 41m
Altitude 30000
Route NAXOP UZ45 IBDAL
Aircraft A320/M-SDE3FGHIRWY/LB1

Departure

Time 2026-05-06 14:15
Airport Santos Dumont Airport (SBRJ)

Arrival

Time 2026-05-06 14:56
Airport Congonhas–Deputado Freitas Nobre Airport (SBSP)
Time Latitude Longitude Altitude Speed Heading
2026-05-06 14:02 -22.90953 -43.16618 26 ft 0 kts 266°
2026-05-06 14:06 -22.90953 -43.16617 26 ft 0 kts 266°
2026-05-06 14:07 -22.90953 -43.16608 22 ft 3 kts 266°
2026-05-06 14:07 -22.90951 -43.16588 24 ft 3 kts 266°
2026-05-06 14:07 -22.90950 -43.16567 22 ft 3 kts 251°
2026-05-06 14:08 -22.90941 -43.16550 22 ft 3 kts 210°
2026-05-06 14:08 -22.90924 -43.16545 22 ft 0 kts 176°
2026-05-06 14:08 -22.90927 -43.16545 22 ft 1 kts 176°
2026-05-06 14:08 -22.90929 -43.16544 22 ft 0 kts 176°
2026-05-06 14:10 -22.90930 -43.16544 22 ft 1 kts 176°
2026-05-06 14:10 -22.90945 -43.16543 22 ft 4 kts 175°
2026-05-06 14:10 -22.90980 -43.16540 22 ft 6 kts 175°
2026-05-06 14:11 -22.91033 -43.16536 22 ft 9 kts 175°
2026-05-06 14:11 -22.91080 -43.16532 22 ft 8 kts 174°
2026-05-06 14:11 -22.91142 -43.16518 22 ft 11 kts 172°
2026-05-06 14:11 -22.91225 -43.16512 22 ft 13 kts 176°
2026-05-06 14:12 -22.91327 -43.16505 22 ft 16 kts 176°
2026-05-06 14:12 -22.91410 -43.16492 24 ft 10 kts 150°
2026-05-06 14:12 -22.91467 -43.16436 22 ft 7 kts 136°
2026-05-06 14:12 -22.91481 -43.16421 22 ft 2 kts 136°
2026-05-06 14:13 -22.91501 -43.16400 21 ft 6 kts 136°
2026-05-06 14:13 -22.91541 -43.16359 20 ft 10 kts 136°
2026-05-06 14:13 -22.91600 -43.16299 20 ft 13 kts 138°
2026-05-06 14:13 -22.91650 -43.16250 20 ft 5 kts 118°
2026-05-06 14:14 -22.91637 -43.16244 20 ft 3 kts 353°
2026-05-06 14:14 -22.91633 -43.16244 20 ft 0 kts 353°
2026-05-06 14:14 -22.91519 -43.16254 20 ft 58 kts 357°
2026-05-06 14:14 -22.90805 -43.16299 28 ft 141 kts 356°
2026-05-06 14:15 -22.89710 -43.16374 546 ft 164 kts 358°
2026-05-06 14:15 -22.88647 -43.16049 1113 ft 168 kts 41°
2026-05-06 14:15 -22.88028 -43.14906 1399 ft 189 kts 68°
2026-05-06 14:15 -22.87427 -43.13540 1695 ft 213 kts 69°
2026-05-06 14:16 -22.87278 -43.11864 2042 ft 240 kts 103°
2026-05-06 14:16 -22.88153 -43.10264 2597 ft 260 kts 141°
2026-05-06 14:16 -22.89834 -43.09523 3483 ft 269 kts 175°
2026-05-06 14:16 -22.91713 -43.09718 4459 ft 274 kts 191°
2026-05-06 14:17 -22.93559 -43.10300 5451 ft 278 kts 197°
2026-05-06 14:17 -22.95365 -43.11009 6391 ft 282 kts 199°
2026-05-06 14:17 -22.97216 -43.11751 7282 ft 285 kts 198°
2026-05-06 14:17 -22.99060 -43.12572 8161 ft 290 kts 210°
2026-05-06 14:18 -23.00570 -43.14044 9009 ft 297 kts 234°
2026-05-06 14:18 -23.01432 -43.16081 9862 ft 301 kts 252°
2026-05-06 14:18 -23.02133 -43.18234 10654 ft 304 kts 244°
2026-05-06 14:18 -23.03140 -43.20353 10967 ft 327 kts 241°
2026-05-06 14:19 -23.04251 -43.22560 11476 ft 338 kts 240°
2026-05-06 14:19 -23.05407 -43.24806 12152 ft 343 kts 240°
2026-05-06 14:19 -23.06584 -43.27075 12859 ft 347 kts 240°
2026-05-06 14:19 -23.07773 -43.29371 13570 ft 350 kts 240°
2026-05-06 14:20 -23.08970 -43.31690 14240 ft 354 kts 240°
2026-05-06 14:20 -23.10175 -43.34034 14864 ft 357 kts 240°
2026-05-06 14:20 -23.11387 -43.36401 15513 ft 359 kts 240°
2026-05-06 14:20 -23.12599 -43.38774 16201 ft 360 kts 240°
2026-05-06 14:21 -23.13813 -43.41158 16881 ft 361 kts 240°
2026-05-06 14:21 -23.15026 -43.43550 17562 ft 362 kts 240°
2026-05-06 14:21 -23.16245 -43.45951 18216 ft 364 kts 240°
2026-05-06 14:21 -23.17457 -43.48338 18791 ft 367 kts 240°
2026-05-06 14:22 -23.18694 -43.50773 19353 ft 369 kts 240°
2026-05-06 14:22 -23.19940 -43.53222 19920 ft 372 kts 240°
2026-05-06 14:22 -23.21198 -43.55692 20500 ft 374 kts 240°
2026-05-06 14:22 -23.22460 -43.58175 21082 ft 377 kts 240°
2026-05-06 14:23 -23.23732 -43.60675 21662 ft 379 kts 240°
2026-05-06 14:23 -23.25013 -43.63192 22230 ft 382 kts 240°
2026-05-06 14:23 -23.26304 -43.65730 22806 ft 385 kts 241°
2026-05-06 14:23 -23.27599 -43.68286 23375 ft 388 kts 241°
2026-05-06 14:24 -23.28905 -43.70868 23915 ft 391 kts 241°
2026-05-06 14:24 -23.30217 -43.73465 24414 ft 393 kts 241°
2026-05-06 14:24 -23.31534 -43.76076 24921 ft 395 kts 241°
2026-05-06 14:24 -23.32860 -43.78703 25422 ft 396 kts 241°
2026-05-06 14:25 -23.34191 -43.81335 25921 ft 398 kts 240°
2026-05-06 14:25 -23.35528 -43.83978 26412 ft 400 kts 240°
2026-05-06 14:25 -23.36872 -43.86637 26881 ft 402 kts 240°
2026-05-06 14:25 -23.38219 -43.89302 27347 ft 403 kts 240°
2026-05-06 14:26 -23.39574 -43.91986 27809 ft 405 kts 240°
2026-05-06 14:26 -23.40932 -43.94677 28260 ft 407 kts 240°
2026-05-06 14:26 -23.42295 -43.97379 28711 ft 408 kts 240°
2026-05-06 14:26 -23.43667 -44.00096 29158 ft 410 kts 240°
2026-05-06 14:27 -23.45042 -44.02820 29593 ft 412 kts 240°
2026-05-06 14:27 -23.46425 -44.05562 30021 ft 414 kts 240°
2026-05-06 14:27 -23.47809 -44.08308 30159 ft 411 kts 240°
2026-05-06 14:27 -23.49137 -44.10948 30175 ft 394 kts 240°
2026-05-06 14:28 -23.51550 -44.16272 30179 ft 404 kts 249°
2026-05-06 14:28 -23.52352 -44.19267 30180 ft 418 kts 254°
2026-05-06 14:28 -23.53066 -44.22385 30178 ft 430 kts 254°
2026-05-06 14:29 -23.54549 -44.28854 30177 ft 449 kts 254°
2026-05-06 14:29 -23.56072 -44.35525 30177 ft 455 kts 254°
2026-05-06 14:30 -23.57601 -44.42227 30172 ft 456 kts 254°
2026-05-06 14:30 -23.59127 -44.48948 30176 ft 457 kts 254°
2026-05-06 14:31 -23.60654 -44.55680 30175 ft 457 kts 254°
2026-05-06 14:31 -23.62182 -44.62409 30174 ft 457 kts 254°
2026-05-06 14:32 -23.63711 -44.69149 30168 ft 458 kts 254°
2026-05-06 14:32 -23.65228 -44.75853 30169 ft 458 kts 254°
2026-05-06 14:33 -23.66752 -44.82603 30165 ft 459 kts 254°
2026-05-06 14:33 -23.68271 -44.89366 30168 ft 459 kts 254°
2026-05-06 14:34 -23.69790 -44.96134 30178 ft 459 kts 254°
2026-05-06 14:34 -23.71310 -45.02905 30177 ft 459 kts 254°
2026-05-06 14:35 -23.72822 -45.09680 30179 ft 459 kts 254°
2026-05-06 14:35 -23.74329 -45.16457 30179 ft 460 kts 254°
2026-05-06 14:36 -23.75833 -45.23236 30177 ft 459 kts 254°
2026-05-06 14:36 -23.77338 -45.30006 30180 ft 459 kts 254°
2026-05-06 14:37 -23.78834 -45.36780 30182 ft 459 kts 254°
2026-05-06 14:37 -23.79874 -45.43659 30185 ft 462 kts 263°
2026-05-06 14:38 -23.80226 -45.50665 30196 ft 462 kts 263°
2026-05-06 14:38 -23.80587 -45.57618 30186 ft 461 kts 263°
2026-05-06 14:39 -23.80947 -45.64604 30196 ft 460 kts 262°
2026-05-06 14:39 -23.81301 -45.71575 30195 ft 460 kts 262°
2026-05-06 14:40 -23.81653 -45.78540 30196 ft 459 kts 262°
2026-05-06 14:40 -23.81825 -45.82002 29458 ft 455 kts 262°
2026-05-06 14:40 -23.81997 -45.85471 28174 ft 458 kts 263°
2026-05-06 14:41 -23.82171 -45.88954 26945 ft 461 kts 263°
2026-05-06 14:41 -23.82347 -45.92452 25761 ft 463 kts 264°
2026-05-06 14:41 -23.82521 -45.95966 24626 ft 464 kts 265°
2026-05-06 14:41 -23.82695 -45.99492 23476 ft 465 kts 266°
2026-05-06 14:42 -23.82809 -46.01829 22625 ft 465 kts 266°
2026-05-06 14:42 -23.82978 -46.05354 21395 ft 465 kts 266°
2026-05-06 14:42 -23.83146 -46.08870 20388 ft 461 kts 266°
2026-05-06 14:42 -23.83309 -46.12345 19432 ft 456 kts 266°
2026-05-06 14:43 -23.83467 -46.15794 18477 ft 453 kts 266°
2026-05-06 14:43 -23.83626 -46.19215 17448 ft 449 kts 265°
2026-05-06 14:43 -23.83784 -46.22600 16552 ft 443 kts 266°
2026-05-06 14:43 -23.83943 -46.25942 15640 ft 439 kts 266°
2026-05-06 14:44 -23.84101 -46.29263 14775 ft 436 kts 266°
2026-05-06 14:44 -23.84258 -46.32560 13937 ft 434 kts 266°
2026-05-06 14:44 -23.84413 -46.35835 13086 ft 431 kts 266°
2026-05-06 14:45 -23.84717 -46.42301 11632 ft 421 kts 267°
2026-05-06 14:45 -23.84862 -46.45426 11453 ft 401 kts 267°
2026-05-06 14:45 -23.85001 -46.48390 11339 ft 380 kts 267°
2026-05-06 14:45 -23.85133 -46.51203 11225 ft 362 kts 268°
2026-05-06 14:46 -23.85254 -46.53890 11112 ft 347 kts 268°
2026-05-06 14:46 -23.85368 -46.56469 10998 ft 333 kts 268°
2026-05-06 14:46 -23.85400 -46.58944 10886 ft 320 kts 276°
2026-05-06 14:46 -23.84902 -46.61253 10737 ft 308 kts 293°
2026-05-06 14:47 -23.83863 -46.63258 10505 ft 300 kts 310°
2026-05-06 14:47 -23.82398 -46.64831 10354 ft 294 kts 326°
2026-05-06 14:47 -23.80685 -46.66039 10117 ft 295 kts 329°
2026-05-06 14:47 -23.78941 -46.67239 9709 ft 295 kts 329°
2026-05-06 14:48 -23.77206 -46.68441 9319 ft 295 kts 329°
2026-05-06 14:48 -23.75525 -46.69611 9307 ft 289 kts 329°
2026-05-06 14:48 -23.73835 -46.70786 9313 ft 284 kts 329°
2026-05-06 14:48 -23.72214 -46.71916 9294 ft 271 kts 329°
2026-05-06 14:49 -23.70653 -46.73004 9167 ft 262 kts 329°
2026-05-06 14:49 -23.69141 -46.74056 9043 ft 254 kts 329°
2026-05-06 14:49 -23.67673 -46.75074 8919 ft 247 kts 329°
2026-05-06 14:49 -23.66240 -46.76068 8705 ft 242 kts 329°
2026-05-06 14:50 -23.64845 -46.77032 8418 ft 241 kts 329°
2026-05-06 14:50 -23.63414 -46.78020 8119 ft 240 kts 329°
2026-05-06 14:50 -23.62018 -46.78986 7778 ft 236 kts 329°
2026-05-06 14:50 -23.60642 -46.79939 7406 ft 232 kts 330°
2026-05-06 14:51 -23.59289 -46.80866 7048 ft 227 kts 333°
2026-05-06 14:51 -23.57829 -46.81369 6768 ft 215 kts 358°
2026-05-06 14:51 -23.56399 -46.81164 6443 ft 202 kts 23°
2026-05-06 14:51 -23.55234 -46.80387 6098 ft 194 kts 45°
2026-05-06 14:52 -23.54429 -46.79226 5747 ft 192 kts 59°
2026-05-06 14:52 -23.53720 -46.78004 5424 ft 188 kts 58°
2026-05-06 14:52 -23.53022 -46.76816 5193 ft 184 kts 58°
2026-05-06 14:52 -23.52346 -46.75662 5017 ft 177 kts 61°
2026-05-06 14:53 -23.52009 -46.74415 4853 ft 171 kts 90°
2026-05-06 14:53 -23.52288 -46.73178 4744 ft 171 kts 118°
2026-05-06 14:53 -23.53094 -46.72237 4559 ft 172 kts 146°
2026-05-06 14:53 -23.54097 -46.71558 4362 ft 172 kts 147°
2026-05-06 14:54 -23.55086 -46.70883 4184 ft 162 kts 147°
2026-05-06 14:54 -23.56013 -46.70250 4031 ft 151 kts 146°
2026-05-06 14:54 -23.56875 -46.69658 3852 ft 146 kts 146°
2026-05-06 14:54 -23.57728 -46.69070 3649 ft 144 kts 145°
2026-05-06 14:55 -23.58570 -46.68489 3446 ft 144 kts 146°
2026-05-06 14:55 -23.59417 -46.67905 3236 ft 144 kts 146°
2026-05-06 14:55 -23.60263 -46.67325 3042 ft 143 kts 145°
2026-05-06 14:55 -23.61102 -46.66740 2840 ft 143 kts 144°
2026-05-06 14:56 -23.61942 -46.66153 2660 ft 143 kts 146°
2026-05-06 14:56 -23.62725 -46.65602 2610 ft 117 kts 147°
2026-05-06 14:56 -23.63185 -46.65287 2610 ft 33 kts 147°
2026-05-06 14:56 -23.63345 -46.65205 2607 ft 9 kts 180°
2026-05-06 14:57 -23.63409 -46.65247 2602 ft 15 kts 257°
2026-05-06 14:57 -23.63336 -46.65327 2602 ft 16 kts 327°
2026-05-06 14:57 -23.63258 -46.65382 2602 ft 10 kts 328°
2026-05-06 14:57 -23.63193 -46.65427 2602 ft 12 kts 328°
2026-05-06 14:58 -23.63115 -46.65480 2602 ft 15 kts 328°
2026-05-06 14:58 -23.63014 -46.65522 2603 ft 16 kts 349°
2026-05-06 14:58 -23.62909 -46.65587 2603 ft 18 kts 327°
2026-05-06 14:58 -23.62843 -46.65633 2603 ft 10 kts 328°
2026-05-06 14:59 -23.62786 -46.65671 2603 ft 6 kts 328°
2026-05-06 14:59 -23.62785 -46.65711 2602 ft 5 kts 233°
2026-05-06 14:59 -23.62809 -46.65750 2601 ft 4 kts 237°
2026-05-06 14:59 -23.62814 -46.65757 2601 ft 0 kts 238°